﻿_id,日時,平均風速(m/s),平均風向,最大瞬間風速(m/s),最大風速時風向,気温(℃),湿度(%),10分間移動積算雨量(mm),1時間移動積算雨量(mm),日雨量(mm),累計雨量(mm)
1,2021-08-16T00:00:00,0.4,東,1,東南東,21.6,96.1,0,0,34.5,218
2,2021-08-16T00:01:00,0.5,東南東,1,東南東,21.6,96.1,0,0,0,218
3,2021-08-16T00:02:00,0.5,東南東,1,東南東,21.6,96.1,0,0,0,218
4,2021-08-16T00:03:00,0.5,東南東,1,東南東,21.5,95.9,0,0,0,218
5,2021-08-16T00:04:00,0.5,東南東,1,東南東,21.5,95.9,0,0,0,218
6,2021-08-16T00:05:00,0.5,東南東,1,東南東,21.5,95.9,0,0,0,218
7,2021-08-16T00:06:00,0.5,東南東,1,東南東,21.6,96,0,0,0,218
8,2021-08-16T00:07:00,0.6,東南東,1,東南東,21.5,96,0,0,0,218
9,2021-08-16T00:08:00,0.6,東南東,1,東南東,21.6,96,0,0,0,218
10,2021-08-16T00:09:00,0.6,東南東,1,東南東,21.6,96,0,0,0,218
11,2021-08-16T00:10:00,0.6,東,0.9,東,21.5,95.9,0,0,0,218
12,2021-08-16T00:11:00,0.6,東,0.9,東,21.6,95.9,0,0,0,218
13,2021-08-16T00:12:00,0.6,東,0.9,東,21.6,95.9,0,0,0,218
14,2021-08-16T00:13:00,0.5,東北東,0.9,東,21.5,95.9,0,0,0,218
15,2021-08-16T00:14:00,0.5,東北東,0.9,東,21.4,95.6,0,0,0,218
16,2021-08-16T00:15:00,0.4,北東,0.9,東,21.4,95.7,0,0,0,218
17,2021-08-16T00:16:00,0.4,北北東,0.9,東,21.4,95.8,0,0,0,218
18,2021-08-16T00:17:00,0.3,北,0.9,東,21.3,95.8,0,0,0,218
19,2021-08-16T00:18:00,0.3,北北西,0.9,東,21.3,95.9,0,0,0,218
20,2021-08-16T00:19:00,0.2,静穏,0.7,東,21.3,96.1,0,0,0,218
21,2021-08-16T00:20:00,0.2,静穏,0.5,北北東,21.3,96.1,0,0,0,218
22,2021-08-16T00:21:00,0.2,静穏,0.4,北西,21.4,96.2,0,0,0,218
23,2021-08-16T00:22:00,0.2,静穏,0.4,北西,21.4,96.3,0,0,0,218
24,2021-08-16T00:23:00,0.2,静穏,0.8,北西,21.3,96.1,0,0,0,218
25,2021-08-16T00:24:00,0.2,静穏,0.8,北西,21.3,96.1,0,0,0,218
26,2021-08-16T00:25:00,0.3,北西,0.9,西,21.2,96.1,0,0,0,218
27,2021-08-16T00:26:00,0.3,西北西,0.9,西,21.2,96.2,0,0,0,218
28,2021-08-16T00:27:00,0.4,西北西,0.9,西,21.2,96.2,0,0,0,218
29,2021-08-16T00:28:00,0.4,西北西,0.9,西,21.2,96.3,0,0,0,218
30,2021-08-16T00:29:00,0.4,西北西,0.9,西,21.2,96.3,0,0,0,218
31,2021-08-16T00:30:00,0.4,西北西,0.9,西,21.2,96.4,0,0,0,218
32,2021-08-16T00:31:00,0.5,西,0.9,西,21.2,96.5,0,0,0,218
33,2021-08-16T00:32:00,0.5,西,0.9,西,21.2,96.6,0,0,0,218
34,2021-08-16T00:33:00,0.5,西,0.9,西,21.3,96.7,0,0,0,218
35,2021-08-16T00:34:00,0.4,西,0.9,西,21.2,96.6,0,0,0,218
36,2021-08-16T00:35:00,0.4,西北西,0.9,西,21.3,96.7,0,0,0,218
37,2021-08-16T00:36:00,0.4,西北西,0.9,西,21.4,96.8,0,0,0,218
38,2021-08-16T00:37:00,0.4,北西,0.9,西,21.4,96.8,0,0,0,218
39,2021-08-16T00:38:00,0.3,北西,0.9,西,21.4,96.8,0,0,0,218
40,2021-08-16T00:39:00,0.3,北西,0.9,西,21.3,96.6,0,0,0,218
41,2021-08-16T00:40:00,0.3,北西,0.9,西,21.3,96.6,0,0,0,218
42,2021-08-16T00:41:00,0.2,静穏,0.6,北北東,21.2,96.6,0,0,0,218
43,2021-08-16T00:42:00,0.2,静穏,0.6,北北東,21.3,96.5,0,0,0,218
44,2021-08-16T00:43:00,0.2,静穏,0.6,北北東,21.3,96.7,0,0,0,218
45,2021-08-16T00:44:00,0.2,静穏,0.6,北北東,21.3,96.8,0,0,0,218
46,2021-08-16T00:45:00,0.2,静穏,0.6,北北東,21.3,96.6,0,0,0,218
47,2021-08-16T00:46:00,0.1,静穏,0.6,北北東,21.3,96.6,0,0,0,218
48,2021-08-16T00:47:00,0.1,静穏,0.5,北,21.4,96.8,0,0,0,218
49,2021-08-16T00:48:00,0.1,静穏,0.4,西南西,21.4,96.8,0,0,0,218
50,2021-08-16T00:49:00,0.1,静穏,0.4,東,21.2,96.5,0,0,0,218
51,2021-08-16T00:50:00,0.1,静穏,0.5,東,21.2,96.4,0,0,0,218
52,2021-08-16T00:51:00,0.2,静穏,0.6,東南東,21.3,96.5,0,0,0,218
53,2021-08-16T00:52:00,0.2,静穏,0.7,東,21.2,96.5,0,0,0,218
54,2021-08-16T00:53:00,0.3,東,0.7,東,21.2,96.4,0,0,0,218
55,2021-08-16T00:54:00,0.3,東,0.7,東,21.2,96.5,0,0,0,218
56,2021-08-16T00:55:00,0.3,東南東,0.7,東,21.2,96.5,0,0,0,218
57,2021-08-16T00:56:00,0.3,東南東,0.7,東,21.1,96.5,0,0,0,218
58,2021-08-16T00:57:00,0.3,東南東,0.7,東,21.1,96.5,0,0,0,218
59,2021-08-16T00:58:00,0.4,東南東,0.7,東,21.1,96.5,0,0,0,218
60,2021-08-16T00:59:00,0.4,東南東,0.7,東,21.1,96.5,0,0,0,218
61,2021-08-16T01:00:00,0.4,東南東,0.7,東,21.1,96.7,0,0,0,218
62,2021-08-16T01:01:00,0.4,東南東,0.7,東,21.2,96.7,0,0,0,218
63,2021-08-16T01:02:00,0.3,東,0.7,東,21.2,96.8,0,0,0,218
64,2021-08-16T01:03:00,0.3,東,0.7,東,21.1,96.7,0,0,0,218
65,2021-08-16T01:04:00,0.3,東,0.7,東,21.1,96.6,0,0,0,218
66,2021-08-16T01:05:00,0.3,東,0.7,東,21.1,96.7,0,0,0,218
67,2021-08-16T01:06:00,0.3,東北東,0.7,東,21,96.5,0,0,0,218
68,2021-08-16T01:07:00,0.3,東北東,0.7,東,21.1,96.5,0,0,0,218
69,2021-08-16T01:08:00,0.3,東北東,0.6,東南東,21.2,96.7,0,0,0,218
70,2021-08-16T01:09:00,0.3,東,0.6,東南東,21.2,96.8,0,0,0,218
71,2021-08-16T01:10:00,0.2,静穏,0.6,東南東,21.2,96.8,0,0,0,218
72,2021-08-16T01:11:00,0.2,静穏,0.6,東南東,21.2,96.7,0,0,0,218
73,2021-08-16T01:12:00,0.2,静穏,0.6,東南東,21.2,96.6,0,0,0,218
74,2021-08-16T01:13:00,0.2,静穏,0.6,東南東,21.1,96.6,0,0,0,218
75,2021-08-16T01:14:00,0.2,静穏,0.6,東南東,21.1,96.5,0,0,0,218
76,2021-08-16T01:15:00,0.2,静穏,0.6,東南東,21.1,96.6,0,0,0,218
77,2021-08-16T01:16:00,0.2,静穏,0.6,東南東,21.1,96.7,0,0,0,218
78,2021-08-16T01:17:00,0.2,静穏,0.6,北西,21.1,96.6,0,0,0,218
79,2021-08-16T01:18:00,0.2,静穏,0.6,北西,21.1,96.6,0,0,0,218
80,2021-08-16T01:19:00,0.2,静穏,0.6,北西,21.1,96.6,0,0,0,218
81,2021-08-16T01:20:00,0.2,静穏,0.6,北西,21.1,96.7,0,0,0,218
82,2021-08-16T01:21:00,0.2,静穏,0.6,北西,21.1,96.7,0,0,0,218
83,2021-08-16T01:22:00,0.2,静穏,0.6,北西,21.1,96.7,0,0,0,218
84,2021-08-16T01:23:00,0.2,静穏,0.6,北西,21,96.6,0,0,0,218
85,2021-08-16T01:24:00,0.1,静穏,0.4,北北西,20.9,96.5,0,0,0,218
86,2021-08-16T01:25:00,0.1,静穏,0.3,西南西,20.9,96.5,0,0,0,218
87,2021-08-16T01:26:00,0.1,静穏,0.3,西南西,20.9,96.6,0,0,0,218
88,2021-08-16T01:27:00,0.1,静穏,0.3,西南西,21,96.7,0,0,0,218
89,2021-08-16T01:28:00,0.1,静穏,0.3,西南西,20.9,96.7,0,0,0,218
90,2021-08-16T01:29:00,0.1,静穏,0.3,西南西,21,96.8,0,0,0,218
91,2021-08-16T01:30:00,0.1,静穏,0.3,西南西,21,96.9,0,0,0,218
92,2021-08-16T01:31:00,0.1,静穏,0.3,西南西,21.1,96.9,0,0,0,218
93,2021-08-16T01:32:00,0.1,静穏,0.3,西南西,21.1,96.9,0,0,0,218
94,2021-08-16T01:33:00,0.1,静穏,0.3,西南西,21,96.9,0,0,0,218
95,2021-08-16T01:34:00,0.1,静穏,0.3,西南西,21.1,96.9,0,0,0,218
96,2021-08-16T01:35:00,0.1,静穏,0.3,西,21.1,96.9,0,0,0,218
97,2021-08-16T01:36:00,0.1,静穏,0.3,西,21.1,96.9,0,0,0,218
98,2021-08-16T01:37:00,0.1,静穏,0.4,東南東,21,96.8,0,0,0,218
99,2021-08-16T01:38:00,0.1,静穏,0.4,東南東,21,96.7,0,0,0,218
100,2021-08-16T01:39:00,0.1,静穏,0.4,東南東,21,96.8,0,0,0,218
101,2021-08-16T01:40:00,0.1,静穏,0.5,東南東,21,96.8,0,0,0,218
102,2021-08-16T01:41:00,0.2,静穏,0.5,東南東,20.9,96.7,0,0,0,218
103,2021-08-16T01:42:00,0.2,静穏,0.5,東南東,21,96.7,0,0,0,218
104,2021-08-16T01:43:00,0.2,静穏,0.5,東南東,21,96.8,0,0,0,218
105,2021-08-16T01:44:00,0.2,静穏,0.5,東南東,20.9,96.7,0,0,0,218
106,2021-08-16T01:45:00,0.3,東南東,0.6,東,20.9,96.7,0,0,0,218
107,2021-08-16T01:46:00,0.3,東南東,0.7,東,20.9,96.8,0,0,0,218
108,2021-08-16T01:47:00,0.3,東南東,0.7,東,20.9,96.6,0,0,0,218
109,2021-08-16T01:48:00,0.4,東南東,0.7,東,20.9,96.6,0,0,0,218
110,2021-08-16T01:49:00,0.4,東,0.7,東,20.9,96.7,0,0,0,218
111,2021-08-16T01:50:00,0.4,東,0.7,東,20.9,96.8,0,0,0,218
112,2021-08-16T01:51:00,0.4,東,0.7,東,21,96.7,0,0,0,218
113,2021-08-16T01:52:00,0.4,東,0.7,東,21,96.9,0,0,0,218
114,2021-08-16T01:53:00,0.5,東,0.7,東,20.9,96.8,0,0,0,218
115,2021-08-16T01:54:00,0.5,東,0.7,東,20.9,96.7,0,0,0,218
116,2021-08-16T01:55:00,0.5,東,0.7,東,21,96.6,0,0,0,218
117,2021-08-16T01:56:00,0.4,東北東,0.7,東,20.9,96.7,0,0,0,218
118,2021-08-16T01:57:00,0.4,東北東,0.7,東,20.9,96.6,0,0,0,218
119,2021-08-16T01:58:00,0.4,東北東,0.7,東北東,20.9,96.5,0,0,0,218
120,2021-08-16T01:59:00,0.4,東北東,0.7,東北東,20.9,96.6,0,0,0,218
121,2021-08-16T02:00:00,0.4,東,0.7,東北東,20.9,96.5,0,0,0,218
122,2021-08-16T02:01:00,0.4,東北東,0.7,東北東,20.8,96.5,0,0,0,218
123,2021-08-16T02:02:00,0.3,東北東,0.7,東北東,20.8,96.4,0,0,0,218
124,2021-08-16T02:03:00,0.3,東北東,0.7,東北東,20.7,96.4,0,0,0,218
125,2021-08-16T02:04:00,0.3,北東,0.7,東北東,20.7,96.3,0,0,0,218
126,2021-08-16T02:05:00,0.3,北東,0.9,北,20.8,96.6,0,0,0,218
127,2021-08-16T02:06:00,0.4,北北東,0.9,北,20.8,96.7,0,0,0,218
128,2021-08-16T02:07:00,0.4,北北東,0.9,北,20.8,96.6,0,0,0,218
129,2021-08-16T02:08:00,0.3,北北東,0.9,北,20.7,96.6,0,0,0,218
130,2021-08-16T02:09:00,0.3,北,0.9,北,20.8,96.7,0,0,0,218
131,2021-08-16T02:10:00,0.3,北,0.9,北,20.9,96.8,0,0,0,218
132,2021-08-16T02:11:00,0.4,北,0.9,北,20.8,96.8,0,0,0,218
133,2021-08-16T02:12:00,0.4,北,1.2,北北東,20.8,96.7,0,0,0,218
134,2021-08-16T02:13:00,0.5,北,1.2,北北東,20.8,96.7,0,0,0,218
135,2021-08-16T02:14:00,0.6,北,1.3,北,20.8,96.7,0,0,0,218
136,2021-08-16T02:15:00,0.6,北,1.6,北北東,20.9,96.8,0,0,0,218
137,2021-08-16T02:16:00,0.7,北北東,1.6,北北東,20.9,96.9,0,0,0,218
138,2021-08-16T02:17:00,0.7,北北東,1.6,北北東,20.9,97,0,0,0,218
139,2021-08-16T02:18:00,0.7,北北東,1.6,北北東,20.9,96.9,0,0,0,218
140,2021-08-16T02:19:00,0.7,北北東,1.6,北北東,21,97,0,0,0,218
141,2021-08-16T02:20:00,0.7,北北東,1.6,北北東,20.9,96.9,0,0,0,218
142,2021-08-16T02:21:00,0.7,北北東,1.6,北北東,20.9,96.8,0,0,0,218
143,2021-08-16T02:22:00,0.6,北北東,1.6,北北東,21,96.9,0,0,0,218
144,2021-08-16T02:23:00,0.5,北北東,1.6,北北東,20.9,96.9,0,0,0,218
145,2021-08-16T02:24:00,0.5,北北東,1.6,北北東,20.9,96.9,0,0,0,218
146,2021-08-16T02:25:00,0.4,北北東,1.5,北,20.9,96.8,0,0,0,218
147,2021-08-16T02:26:00,0.3,北北東,1,北,20.8,96.7,0,0,0,218
148,2021-08-16T02:27:00,0.2,静穏,0.7,東北東,20.9,96.7,0,0,0,218
149,2021-08-16T02:28:00,0.2,静穏,0.7,東北東,20.8,96.8,0,0,0,218
150,2021-08-16T02:29:00,0.2,静穏,0.5,北北東,20.8,96.7,0,0,0,218
151,2021-08-16T02:30:00,0.2,静穏,0.5,北北東,20.7,96.7,0,0,0,218
152,2021-08-16T02:31:00,0.2,静穏,0.5,北北東,20.7,96.6,0,0,0,218
153,2021-08-16T02:32:00,0.2,静穏,0.5,北北東,20.6,96.7,0,0,0,218
154,2021-08-16T02:33:00,0.3,北北東,0.6,北北東,20.7,96.7,0,0,0,218
155,2021-08-16T02:34:00,0.3,北,0.6,北北東,20.7,96.9,0,0,0,218
156,2021-08-16T02:35:00,0.3,北北東,0.6,北北東,20.8,97,0,0,0,218
157,2021-08-16T02:36:00,0.3,北北東,0.6,北北東,20.8,97.1,0,0,0,218
158,2021-08-16T02:37:00,0.3,北北東,0.6,北北東,20.8,97,0,0,0,218
159,2021-08-16T02:38:00,0.3,北北東,0.6,北北東,20.8,97,0,0,0,218
160,2021-08-16T02:39:00,0.3,北北東,0.6,北北東,20.8,96.9,0,0,0,218
161,2021-08-16T02:40:00,0.3,北東,0.6,北北東,20.8,96.9,0,0,0,218
162,2021-08-16T02:41:00,0.3,北東,0.6,北北東,20.8,96.9,0,0,0,218
163,2021-08-16T02:42:00,0.3,北東,0.6,北北東,20.8,96.9,0,0,0,218
164,2021-08-16T02:43:00,0.3,東北東,0.5,北東,20.8,96.8,0,0,0,218
165,2021-08-16T02:44:00,0.2,静穏,0.5,北東,20.7,96.7,0,0,0,218
166,2021-08-16T02:45:00,0.2,静穏,0.5,北東,20.7,96.7,0,0,0,218
167,2021-08-16T02:46:00,0.2,静穏,0.5,北東,20.7,96.8,0,0,0,218
168,2021-08-16T02:47:00,0.2,静穏,0.4,東北東,20.7,96.9,0,0,0,218
169,2021-08-16T02:48:00,0.1,静穏,0.4,東北東,20.6,96.7,0,0,0,218
170,2021-08-16T02:49:00,0.1,静穏,0.4,東北東,20.5,96.6,0,0,0,218
171,2021-08-16T02:50:00,0.1,静穏,0.4,東北東,20.5,96.6,0,0,0,218
172,2021-08-16T02:51:00,0.1,静穏,0.3,西北西,20.5,96.7,0,0,0,218
173,2021-08-16T02:52:00,0.1,静穏,0.4,南西,20.5,96.8,0,0,0,218
174,2021-08-16T02:53:00,0.1,静穏,0.4,南西,20.5,96.9,0,0,0,218
175,2021-08-16T02:54:00,0.1,静穏,0.4,南西,20.5,97,0,0,0,218
176,2021-08-16T02:55:00,0.1,静穏,0.4,南西,20.5,97,0,0,0,218
177,2021-08-16T02:56:00,0.1,静穏,0.4,南西,20.6,97,0,0,0,218
178,2021-08-16T02:57:00,0.1,静穏,0.4,南西,20.6,97.2,0,0,0,218
179,2021-08-16T02:58:00,0.1,静穏,0.4,南西,20.7,97.2,0,0,0,218
180,2021-08-16T02:59:00,0.1,静穏,0.4,南西,20.7,97.2,0,0,0,218
181,2021-08-16T03:00:00,0.1,静穏,0.4,南西,20.6,97,0,0,0,218
182,2021-08-16T03:01:00,0.1,静穏,0.4,南西,20.5,97,0,0,0,218
183,2021-08-16T03:02:00,0.1,静穏,0.4,西南西,20.5,97,0,0,0,218
184,2021-08-16T03:03:00,0.1,静穏,0.4,西南西,20.5,97,0,0,0,218
185,2021-08-16T03:04:00,0,静穏,0.2,北,20.6,97.1,0,0,0,218
186,2021-08-16T03:05:00,0,静穏,0.2,北,20.6,97.2,0,0,0,218
187,2021-08-16T03:06:00,0,静穏,0.2,北,20.6,97.1,0,0,0,218
188,2021-08-16T03:07:00,0,静穏,0.2,北,20.6,97.1,0,0,0,218
189,2021-08-16T03:08:00,0,静穏,0.2,北,20.6,97.1,0,0,0,218
190,2021-08-16T03:09:00,0,静穏,0.1,南西,20.6,97.3,0,0,0,218
191,2021-08-16T03:10:00,0,静穏,0.1,南西,20.6,97.3,0,0,0,218
192,2021-08-16T03:11:00,0,静穏,0.1,南西,20.6,97.1,0,0,0,218
193,2021-08-16T03:12:00,0,静穏,0.1,南西,20.5,97.1,0,0,0,218
194,2021-08-16T03:13:00,0,静穏,0.1,南西,20.5,97.1,0,0,0,218
195,2021-08-16T03:14:00,0,静穏,0.1,南西,20.5,97.1,0,0,0,218
196,2021-08-16T03:15:00,0,静穏,0.1,南西,20.5,97.1,0,0,0,218
197,2021-08-16T03:16:00,0,静穏,0.1,南西,20.5,97.1,0,0,0,218
198,2021-08-16T03:17:00,0,静穏,0.2,西北西,20.5,97.2,0,0,0,218
199,2021-08-16T03:18:00,0,静穏,0.2,西北西,20.5,97.2,0,0,0,218
200,2021-08-16T03:19:00,0,静穏,0.2,西北西,20.5,97.2,0,0,0,218
201,2021-08-16T03:20:00,0,静穏,0.2,西北西,20.5,97.3,0,0,0,218
202,2021-08-16T03:21:00,0,静穏,0.2,西北西,20.5,97.2,0,0,0,218
203,2021-08-16T03:22:00,0,静穏,0.2,西北西,20.4,97.2,0,0,0,218
204,2021-08-16T03:23:00,0,静穏,0.2,西北西,20.4,97.2,0,0,0,218
205,2021-08-16T03:24:00,0,静穏,0.2,西北西,20.4,97.2,0,0,0,218
206,2021-08-16T03:25:00,0,静穏,0.2,西北西,20.5,97.3,0,0,0,218
207,2021-08-16T03:26:00,0.1,静穏,0.7,西北西,20.5,97.3,0,0,0,218
208,2021-08-16T03:27:00,0.1,静穏,0.7,西北西,20.4,97.3,0,0,0,218
209,2021-08-16T03:28:00,0.1,静穏,0.7,西北西,20.5,97.3,0,0,0,218
210,2021-08-16T03:29:00,0.1,静穏,0.7,西北西,20.5,97.4,0,0,0,218
211,2021-08-16T03:30:00,0.2,静穏,0.7,西北西,20.5,97.4,0,0,0,218
212,2021-08-16T03:31:00,0.2,静穏,0.7,西北西,20.5,97.5,0,0,0,218
213,2021-08-16T03:32:00,0.2,静穏,0.7,西北西,20.5,97.4,0,0,0,218
214,2021-08-16T03:33:00,0.3,北北西,0.7,西北西,20.6,97.4,0,0,0,218
215,2021-08-16T03:34:00,0.3,北北西,0.7,西北西,20.6,97.5,0,0,0,218
216,2021-08-16T03:35:00,0.4,北,0.7,西北西,20.6,97.5,0,0,0,218
217,2021-08-16T03:36:00,0.4,北,0.8,北東,20.6,97.4,0,0,0,218
218,2021-08-16T03:37:00,0.4,北,0.8,北東,20.6,97.5,0,0,0,218
219,2021-08-16T03:38:00,0.5,北北東,0.9,北東,20.6,97.4,0,0,0,218
220,2021-08-16T03:39:00,0.5,北北東,0.9,北東,20.6,97.4,0,0,0,218
221,2021-08-16T03:40:00,0.5,北北東,0.9,北東,20.6,97.3,0,0,0,218
222,2021-08-16T03:41:00,0.6,北東,0.9,北東,20.6,97.4,0,0,0,218
223,2021-08-16T03:42:00,0.6,北東,0.9,北東,20.7,97.4,0,0,0,218
224,2021-08-16T03:43:00,0.6,北東,0.9,北東,20.7,97.4,0,0,0,218
225,2021-08-16T03:44:00,0.6,北東,0.9,北東,20.7,97.4,0,0,0,218
226,2021-08-16T03:45:00,0.6,北東,0.9,北東,20.7,97.4,0,0,0,218
227,2021-08-16T03:46:00,0.5,東北東,0.9,北東,20.6,97.3,0,0,0,218
228,2021-08-16T03:47:00,0.4,東北東,0.9,北東,20.6,97.2,0,0,0,218
229,2021-08-16T03:48:00,0.4,東北東,0.9,北東,20.5,97.1,0,0,0,218
230,2021-08-16T03:49:00,0.3,東,0.9,北東,20.4,97,0,0,0,218
231,2021-08-16T03:50:00,0.3,東,0.9,北東,20.4,96.9,0,0,0,218
232,2021-08-16T03:51:00,0.3,東南東,0.6,北東,20.3,96.9,0,0,0,218
233,2021-08-16T03:52:00,0.3,南東,0.7,西南西,20.3,97,0,0,0,218
234,2021-08-16T03:53:00,0.3,南,0.7,西南西,20.3,97.1,0,0,0,218
235,2021-08-16T03:54:00,0.3,南南西,0.7,西南西,20.4,97.2,0,0,0,218
236,2021-08-16T03:55:00,0.2,静穏,0.7,西南西,20.4,97.2,0,0,0,218
237,2021-08-16T03:56:00,0.2,静穏,0.7,西南西,20.4,97.3,0,0,0,218
238,2021-08-16T03:57:00,0.2,静穏,0.7,西南西,20.4,97.3,0,0,0,218
239,2021-08-16T03:58:00,0.2,静穏,0.7,西南西,20.5,97.4,0,0,0,218
240,2021-08-16T03:59:00,0.2,静穏,0.7,西南西,20.5,97.5,0,0,0,218
241,2021-08-16T04:00:00,0.2,静穏,0.7,西南西,20.4,97.4,0,0,0,218
242,2021-08-16T04:01:00,0.2,静穏,0.7,西南西,20.4,97.3,0,0,0,218
243,2021-08-16T04:02:00,0.1,静穏,0.5,西南西,20.4,97.3,0,0,0,218
244,2021-08-16T04:03:00,0.1,静穏,0.4,西南西,20.4,97.4,0,0,0,218
245,2021-08-16T04:04:00,0,静穏,0.3,南西,20.4,97.4,0,0,0,218
246,2021-08-16T04:05:00,0,静穏,0.2,南西,20.4,97.5,0,0,0,218
247,2021-08-16T04:06:00,0,静穏,0.2,北東,20.5,97.5,0,0,0,218
248,2021-08-16T04:07:00,0,静穏,0.2,北東,20.5,97.6,0,0,0,218
249,2021-08-16T04:08:00,0,静穏,0.4,東,20.4,97.5,0,0,0,218
250,2021-08-16T04:09:00,0.1,静穏,0.5,東,20.4,97.5,0,0,0,218
